Regional Weather Roundup
Issued by NWS

Home | Current Version | Previous Version | Graphics & Text | Print | Product List | Glossary On
Versions: 1 2 3 4 5 6 7 8 9 10 11 12 13 14 15 16 17 18 19 20 21 22 23 24 25 26 27 28 29 30 31 32 33 34 35 36 37 38 39 40 41 42 43 44 45 46 47 48 49 50
000
ASUS43 KDTX 310301
RWRMI
MICHIGAN HOURLY REGIONAL WEATHER ROUNDUP
NATIONAL WEATHER SERVICE DETROIT/PONTIAC MI
1100 PM EDT WED JUL 30 2014

NOTE: "FAIR" INDICATES FEW OR NO CLOUDS BELOW 12,000 FEET WITH NO
SIGNIFICANT WEATHER AND/OR OBSTRUCTION TO VISIBILITY.

MIZ047>049-052>055-059>063-066>070-074>076-081>083-310400-
SOUTHEAST LOWER MICHIGAN

CITY           SKY/WX    TMP DP  RH WIND       PRES   REMARKS
ADRIAN         PTCLDY    61  59  93 W3        30.02S
ALMA           PTCLDY    58  50  75 W5        30.01R
ANN ARBOR      FOG       56  54  93 W3        30.01S VSB 1/4
BAD AXE        CLOUDY    59  55  85 N3        29.98R
CARO           MOCLDY    62  59  90 CALM      29.97S
DETROIT CITY   PTCLDY    66  59  78 SW3       29.99S
DETROIT        MOCLDY    62  60  93 CALM      30.01R
FLINT          MOCLDY    64  59  83 S6        29.99S
GROSSE ILE     PTCLDY    63  61  94 CALM      29.99S FOG
HILLSDALE      CLEAR     60  58  91 CALM      30.04R
HOWELL         PTCLDY    58  57  96 SW3       30.01R

CITY           SKY/WX    TMP DP  RH WIND       PRES   REMARKS
JACKSON        CLEAR     59  55  87 W5        30.02R
LAMBERTVILLE   PTCLDY    59  57  94 CALM      30.02S FOG
LANSING        CLEAR     59  52  77 W7        30.01S
LAPEER         FAIR      58  55  88 SE3       29.99S
MASON          CLEAR     60  53  78 CALM      30.01S
MONROE         PTCLDY    61  57  88 CALM      29.99S FOG
MT. CLEMENS    MOCLDY    63  62  96 SW3       29.97F
PONTIAC        MOCLDY    62  58  86 CALM      29.99S
PORT HOPE        N/A     59  55  87 E12       29.98R
PORT HURON     MOCLDY    55  55 100 S3        29.99F
TRI CITIES     PTCLDY    65  52  62 NW6       29.98R
TROY           CLOUDY    65  59  81 SW3       30.01S
SAGINAW HB     MOCLDY    64  54  68 W7        29.98R
$$
MIZ043>046-050>051-056>058-064>065-071>073-077>080-310400-
SOUTHWEST LOWER MICHIGAN

CITY           SKY/WX    TMP DP  RH WIND       PRES   REMARKS
BATTLE CREEK   CLEAR     60  53  77 W5        30.04R
BENTON HARBOR  CLEAR     55  53  93 CALM      30.04R
BIG RAPIDS     PTCLDY    56  50  80 CALM      30.00S
COLDWATER      CLEAR     61  58  90 CALM      30.04R
FREMONT        FAIR      54  49  83 CALM      30.01S
HOLLAND        CLEAR     57  52  83 CALM      30.03S
GRAND RAPIDS   CLEAR     60  51  72 SW8       30.02S
IONIA          FAIR      57  48  71 W7        30.01R
KALAMAZOO      CLEAR     59  53  80 CALM      30.04R
LUDINGTON      PTCLDY    57  55  92 SW5       30.00F
MARSHALL       CLEAR     57  54  88 W10       30.03R
MOUNT PLEASANT PTCLDY    60  49  68 W3        30.00R
MUSKEGON       PTCLDY    54  50  86 CALM      30.02S
SOUTH HAVEN    CLEAR     54  54 100 CALM      30.04R
$$
MIZ016>042-310400-
NORTHERN LOWER MICHIGAN

CITY           SKY/WX    TMP DP  RH WIND       PRES   REMARKS
ALPENA         CLOUDY    57  55  93 CALM      29.98S
BEAVER ISLAND  MOCLDY    55  55 100 CALM      29.97F
BELLAIRE       CLOUDY    57  54  87 CALM      29.98S
CADILLAC       MOCLDY    55  49  82 CALM      30.00S
CHARLEVOIX     RAIN      60  53  77 S3        30.00F
FRANKFORT      CLOUDY    59  52  77 CALM      29.98S
GAYLORD        CLOUDY    57  51  80 SW3       29.99F
GRAYLING       CLOUDY    56  52  85 CALM      30.00F
HARBOR SPRINGS CLOUDY    58  55  90 CALM      29.98S
HOUGHTON LAKE  CLOUDY    54  51  90 CALM      30.00S
MANISTEE       CLOUDY    57  52  82 CALM      29.99F
OSCODA         MOCLDY    60  55  84 SE3       29.98S
PELLSTON       CLOUDY    56  54  93 CALM      29.98S
ROGERS CITY    CLOUDY    56  56  99 SW5       29.99S
TRAVERSE CITY  CLOUDY    61  52  72 CALM      29.97F
$$
MIZ007>008-015-310400-
EASTERN UPPER MICHIGAN

CITY           SKY/WX    TMP DP  RH WIND       PRES   REMARKS
KINROSS        CLOUDY    55  55 100 CALM      29.97S
MACKINAC ISLAN CLOUDY    58  55  88 W6        29.97S
NEWBERRY       CLOUDY    56  53  91 W7        29.96S
S. S. MARIE    CLOUDY    56  51  84 SW3       29.96S
MUNISING         N/A     55  52  89 S6        29.96S
$$
MIZ004>006-011>014-085-310400-
CENTRAL UPPER MICHIGAN

CITY           SKY/WX    TMP DP  RH WIND       PRES   REMARKS
MANISTIQUE     FAIR      50  50  99 CALM      29.97S FOG
ESCANABA       MOCLDY    55  52  88 CALM      29.96S
MENOMINEE      CLOUDY    59  55  88 NW3       29.96S
SAWYER-GWINN   PTCLDY    54  51  92 CALM      29.97S
$$
MIZ001>003-009>011-084-310400-
WESTERN UPPER MICHIGAN

CITY           SKY/WX    TMP DP  RH WIND       PRES   REMARKS
IRON MOUNTAIN  MOCLDY    59  56  89 CALM      29.97S
HOUGHTON       CLOUDY    55  53  93 NW3       29.96R
COPPER HARBOR    N/A     61  52  72 VRB3      29.94R
$$

ABBREVIATIONS USED IN REMARKS
   TC - TEMPERATURE IN CELSIUS
  WCI - WIND CHILL INDEX
   HX - HEAT INDEX
  VSB - VISIBILITY




USA.gov is the U.S. government's official web portal to all federal, state and local government web resources and services.